[[{"header":{"parameterUnit":"m.s-1","parameterCategory":1,"la1":30.2991,"la2":30.254,"lo1":-89.0895,"lo2":-89.0444,"dy":0.0017,"dx":0.0017,"nx":28,"ny":28,"refTime":"2024-04-06T09:00:00:Z","depth":0,"parameterNumber":2,"parameterNumberName":"U-component_of_WINDS"},"data":[0,0,0,0,0,0,0,0,0,0,0,0,0,0,0,0,0,0,0,0,0,0,0,0,0,0,0,0,0,0,0,0,0,0,0,0,0,0,0,0,0,0,0,0,0,0,0,0,0,0,0,0,0,0,0,0,0,0,-3.6826,-3.6826,0,-3.6801,-3.6801,-3.68,-3.6713,-3.6711,-3.6709,-3.6707,-3.6683,-3.6685,-3.6686,0,0,0,0,0,0,0,0,0,0,0,0,0,-3.6802,-3.6803,-3.6826,-3.6826,-3.6826,-3.6801,-3.6801,-3.68,-3.6713,-3.6711,-3.6709,-3.6706,-3.6683,-3.6684,-3.6686,0,0,0,0,0,0,0,0,0,0,0,0,0,-3.6798,-3.6803,-3.6826,-3.6779,-3.6775,-3.6801,-3.6801,-3.68,-3.6714,-3.6711,-3.6708,-3.6705,-3.6683,-3.6684,-3.6686,-3.6757,0,0,-3.6692,-3.6692,0,0,0,0,0,0,0,0,-3.6799,-3.6799,-3.6787,-3.6783,-3.6778,-3.6757,-3.6783,-3.6786,-3.6715,-3.6737,-3.6707,-3.6704,-3.671,-3.671,-3.6712,-3.6755,-3.6754,-3.6692,-3.6693,-3.6694,-3.6694,0,0,0,0,0,0,0,-3.6799,-3.68,-3.6816,-3.6786,-3.6781,-3.676,-3.6756,-3.6783,-3.6741,-3.6735,-3.6728,-3.6727,-3.6707,-3.671,-3.671,-3.6754,-3.6692,-3.6693,-3.6694,-3.6695,-3.6854,-3.6857,0,0,0,0,0,0,-3.6806,-3.6801,-3.6817,-3.6816,-3.6781,-3.6763,-3.6759,-3.6767,-3.674,-3.6733,-3.6729,-3.6723,-3.6708,-3.6708,-3.6709,-3.6789,-3.6694,-3.6695,-3.6696,-3.6851,-3.6855,-3.6858,0,0,0,0,0,0,-3.6805,-3.6808,-3.6818,-3.6806,-3.6806,-3.6767,-3.6776,-3.6768,-3.677,-3.6736,-3.6728,-3.6739,-3.6706,-3.6707,-3.6745,-3.6787,-3.6696,-3.6698,-3.6847,-3.6852,-3.6857,-3.6949,0,0,0,0,0,0,-3.6805,-3.6808,-3.6834,-3.6808,-3.6807,-3.6854,-3.6779,-3.6769,-3.6773,-3.6764,-3.6743,-3.6737,-3.6704,-3.6743,-3.6747,-3.6788,-3.6699,-3.6843,-3.685,-3.6855,-3.6942,-3.6957,-3.6969,0,0,0,0,0,-3.6804,-3.6861,-3.6836,-3.6838,-3.6838,-3.6856,-3.6856,-3.6816,-3.6777,-3.6803,-3.6781,-3.6738,-3.6783,-3.6748,-3.6751,-3.6793,-3.6841,-3.6848,-3.6855,-3.6936,-3.6954,-3.6969,0,0,0,0,0,0,-3.6894,-3.6857,-3.6828,-3.6878,-3.6871,-3.6842,-3.6872,-3.6836,-3.684,-3.6832,-3.6783,-3.6779,-3.6825,-3.6813,-3.6775,-3.686,-3.6804,-3.6813,-3.6865,-3.6881,-3.6895,-3.6895,-3.6701,0,0,0,0,0,-3.692,-3.6937,-3.6904,-3.6951,-3.6949,-3.6912,-3.6919,-3.6889,-3.6879,-3.6876,-3.6857,-3.6851,-3.6863,-3.6872,-3.6882,-3.6942,-3.6935,-3.6972,-3.6986,-3.6997,-3.7004,-3.7034,-3.7049,-3.6882,-3.6882,-3.6881,0,0,-3.6972,-3.6954,-3.6968,-3.6969,-3.696,-3.6979,-3.691,-3.6934,-3.6947,-3.688,-3.6914,-3.6901,-3.689,-3.694,-3.696,-3.6932,-3.7049,-3.7006,-3.7015,-3.7015,-3.7043,-3.7059,-3.7073,-3.6886,-3.6886,-3.6885,0,0,-3.7078,-3.7067,-3.7104,-3.7097,-3.7084,-3.7059,-3.7069,-3.7045,-3.7033,-3.7067,-3.7017,-3.7034,-3.7056,-3.7051,-3.7051,-3.7157,-3.7117,-3.7162,-3.723,-3.726,-3.7273,-3.7285,-3.7321,-3.7335,-3.7169,-3.717,-3.717,0,-3.7145,-3.7171,-3.7128,-3.7155,-3.7157,-3.7097,-3.7135,-3.713,-3.7122,-3.7125,-3.7093,-3.712,-3.7109,-3.7156,-3.7182,-3.7185,-3.7194,-3.7162,-3.7275,-3.7286,-3.7296,-3.733,-3.7344,-3.7175,-3.7174,-3.7174,-3.7173,0,-3.7253,-3.7273,-3.7305,-3.7298,-3.7304,-3.7336,-3.7299,-3.7311,-3.7281,-3.726,-3.7296,-3.7281,-3.7286,-3.7296,-3.7268,-3.7339,-3.7321,-3.7283,-3.7225,-3.7318,-3.7349,-3.7362,-3.7183,-3.7181,-3.7179,-3.7178,0,0,-3.7411,-3.7381,-3.7393,-3.7389,-3.7372,-3.7386,-3.7417,-3.7422,-3.7432,-3.743,-3.7453,-3.7475,-3.7439,-3.744,-3.7411,-3.7438,-3.7521,-3.7396,-3.7395,-3.7418,-3.7598,-3.7625,-3.764,-3.7496,-3.7498,-3.75,-3.7598,0,-3.751,-3.7558,-3.7522,-3.7577,-3.7594,-3.7539,-3.7566,-3.7559,-3.7541,-3.7553,-3.7534,-3.7549,-3.7502,-3.7502,-3.7526,-3.7506,-3.7556,-3.7499,-3.7517,-3.7518,-3.7518,-3.7657,-3.7685,-3.7778,-3.761,-3.7612,-3.7614,0,-3.763,-3.7632,-3.7689,-3.7668,-3.7674,-3.7698,-3.77,-3.7713,-3.7704,-3.7689,-3.7691,-3.7655,-3.7684,-3.7631,-3.767,-3.7632,-3.7638,-3.7629,-3.7632,-3.763,-3.7569,-3.7656,-3.7807,-3.782,-3.7633,-3.7631,-3.763,0,-3.7737,-3.7755,-3.779,-3.7789,-3.7766,-3.7784,-3.7776,-3.7764,-3.777,-3.7772,-3.7775,-3.7782,-3.7785,-3.7791,-3.7758,-3.7722,-3.7802,-3.7745,-3.7789,-3.779,-3.7806,-3.7805,-3.7957,-3.7815,-3.7814,-3.7814,-3.7814,0,-3.7849,-3.7886,-3.7838,-3.786,-3.79,-3.7859,-3.7899,-3.7885,-3.7876,-3.7894,-3.7849,-3.7867,-3.7824,-3.7839,-3.7814,-3.785,-3.7853,-3.7841,-3.7833,-3.7843,-3.7845,-3.7845,-3.7836,-3.7818,-3.7817,-3.7816,-3.7816,0,-3.7974,-3.7944,-3.7979,-3.7955,-3.795,-3.798,-3.796,-3.7979,-3.7959,-3.7984,-3.7987,-3.7956,-3.797,-3.7939,-3.7951,-3.7934,-3.7984,-3.7968,-3.7986,-3.798,-3.8026,-3.8021,-3.8181,-3.8199,-3.8048,-3.8049,-3.8051,0,-3.8046,-3.8073,-3.8052,-3.8061,-3.8055,-3.807,-3.8075,-3.8037,-3.8044,-3.8037,-3.8058,-3.8069,-3.8076,-3.8103,-3.8081,-3.8089,-3.8071,-3.8127,-3.8072,-3.8081,-3.807,-3.8067,-3.8069,-3.8137,-3.8139,-3.8141,-3.8142,0,-3.8177,-3.8161,-3.817,-3.8174,-3.8181,-3.8183,-3.8182,-3.8192,-3.8151,-3.8162,-3.8177,-3.8182,-3.8193,-3.8205,-3.8208,-3.82,-3.8164,-3.816,-3.817,-3.8179,-3.8188,-3.8182,-3.8014,-3.8156,-3.8154,-3.8153,-3.8152,-3.8152,-3.8276,-3.8297,-3.8285,-3.8297,-3.8292,-3.8292,-3.8309,-3.8291,-3.8302,-3.8308,-3.8285,-3.8305,-3.8297,-3.8297,-3.8294,-3.8309,-3.8284,-3.8299,-3.8303,-3.8307,-3.8313,-3.8188,-3.831,-3.8309,-3.8309,-3.8309,-3.8308,0,-3.8402,-3.8393,-3.8404,-3.8403,-3.8413,-3.8379,-3.8376,-3.8386,-3.8403,-3.8399,-3.8406,-3.8423,-3.8435,-3.8415,-3.8423,-3.8439,-3.8423,-3.8442,-3.8439,-3.8438,-3.8336,-3.8325,-3.8455,-3.8455,-3.8455,-3.8455,-3.8455,-3.8455,-3.8469,-3.8502,-3.8486,-3.8517,-3.8507,-3.8525,-3.8526,-3.8526,-3.8521,-3.8542,-3.8551,-3.8538,-3.8527,-3.8535,-3.8544,-3.8538,-3.8542,-3.8567,-3.8555,-3.846,-3.8445,-3.8431,-3.8421,-3.8569,-3.8569,-3.8656,-3.8656,-3.8657]},{"header":{"parameterUnit":"m.s-1","parameterCategory":1,"la1":30.2991,"la2":30.254,"lo1":-89.0895,"lo2":-89.0444,"dy":0.0017,"dx":0.0017,"nx":28,"ny":28,"refTime":"2024-04-06T09:00:00:Z","depth":0,"parameterNumber":3,"parameterNumberName":"V-component_of_WINDS"},"data":[0,0,0,0,0,0,0,0,0,0,0,0,0,0,0,0,0,0,0,0,0,0,0,0,0,0,0,0,0,0,0,0,0,0,0,0,0,0,0,0,0,0,0,0,0,0,0,0,0,0,0,0,0,0,0,0,0,0,2.7882,2.7883,0,2.7932,2.7932,2.7933,2.7949,2.7949,2.7948,2.7948,2.7995,2.7996,2.7997,0,0,0,0,0,0,0,0,0,0,0,0,0,2.7799,2.78,2.7882,2.7883,2.7883,2.7932,2.7932,2.7933,2.7949,2.7949,2.7948,2.7948,2.7994,2.7996,2.7997,0,0,0,0,0,0,0,0,0,0,0,0,0,2.784,2.7801,2.7882,2.7897,2.7899,2.7931,2.7932,2.7933,2.7949,2.7949,2.7948,2.7948,2.7993,2.7996,2.7998,2.8017,0,0,2.8004,2.8005,0,0,0,0,0,0,0,0,2.7838,2.7843,2.7894,2.7896,2.7899,2.7934,2.792,2.7961,2.7949,2.793,2.7948,2.7948,2.7974,2.7978,2.7988,2.8019,2.8021,2.8004,2.8006,2.8007,2.8007,0,0,0,0,0,0,0,2.7835,2.7841,2.7902,2.7895,2.7898,2.7901,2.7906,2.7928,2.7953,2.7931,2.7933,2.7939,2.7975,2.7986,2.7989,2.8022,2.8004,2.8006,2.8008,2.8008,2.8073,2.8073,0,0,0,0,0,0,2.783,2.7839,2.79,2.7903,2.7867,2.7902,2.7909,2.7923,2.7953,2.7957,2.7939,2.7939,2.7982,2.7986,2.7991,2.8016,2.8007,2.8009,2.801,2.8072,2.8073,2.8073,0,0,0,0,0,0,2.7828,2.7835,2.7898,2.7871,2.788,2.7904,2.792,2.7924,2.7934,2.7959,2.7963,2.7945,2.7982,2.7988,2.8011,2.8018,2.801,2.8011,2.8072,2.8072,2.8073,2.8066,0,0,0,0,0,0,2.7826,2.7835,2.7843,2.7871,2.7881,2.7918,2.792,2.7925,2.7938,2.7939,2.7965,2.7969,2.7982,2.8008,2.8013,2.8021,2.8013,2.8071,2.8072,2.8073,2.8066,2.8067,2.8067,0,0,0,0,0,2.7823,2.7838,2.7843,2.785,2.7892,2.7919,2.7924,2.794,2.7939,2.7947,2.7963,2.7969,2.8016,2.801,2.8016,2.8024,2.8071,2.8072,2.8073,2.8066,2.8067,2.8067,0,0,0,0,0,0,2.7807,2.7842,2.7848,2.7873,2.7893,2.7921,2.7932,2.794,2.7959,2.7959,2.7977,2.7982,2.8004,2.8017,2.8009,2.8045,2.8044,2.8046,2.8036,2.8037,2.8038,2.8034,2.8015,0,0,0,0,0,2.7807,2.7827,2.7856,2.7875,2.7885,2.7907,2.7919,2.793,2.795,2.7958,2.7976,2.7995,2.8014,2.8026,2.8045,2.8068,2.8074,2.8077,2.8077,2.8078,2.8079,2.8093,2.8095,2.8076,2.8076,2.8076,0,0,2.7806,2.7828,2.7839,2.7873,2.7889,2.7909,2.7914,2.7934,2.7948,2.7961,2.7985,2.7998,2.802,2.8044,2.8055,2.8055,2.8086,2.8079,2.8079,2.8081,2.8094,2.8096,2.8097,2.8077,2.8077,2.8077,0,0,2.7815,2.7834,2.7852,2.787,2.7896,2.791,2.7915,2.7942,2.7952,2.7977,2.7987,2.8004,2.8037,2.8053,2.8065,2.8081,2.8088,2.8087,2.809,2.8103,2.8104,2.8106,2.8112,2.8114,2.8089,2.8089,2.8089,0,2.7811,2.7842,2.786,2.7881,2.7895,2.791,2.7929,2.7944,2.7974,2.7983,2.7983,2.8026,2.8041,2.8069,2.8073,2.8083,2.8088,2.8084,2.8103,2.8104,2.8106,2.8112,2.8114,2.8088,2.8088,2.8088,2.8088,0,2.7835,2.7857,2.7868,2.79,2.7915,2.7934,2.7955,2.7969,2.7978,2.7993,2.8018,2.8038,2.8061,2.8069,2.8077,2.8098,2.8097,2.81,2.8098,2.8107,2.8113,2.8116,2.8088,2.8088,2.8088,2.8088,0,0,2.7835,2.7877,2.7881,2.7896,2.7926,2.7943,2.7963,2.7988,2.7999,2.802,2.8037,2.8065,2.8068,2.8082,2.8093,2.8104,2.8117,2.8106,2.8106,2.8107,2.8141,2.8139,2.8141,2.8121,2.8122,2.8122,2.8139,0,2.7848,2.7886,2.7904,2.7933,2.7953,2.7968,2.7985,2.8005,2.802,2.8038,2.8053,2.8074,2.8076,2.8085,2.8097,2.8113,2.8124,2.8112,2.8137,2.8137,2.8131,2.8144,2.8142,2.8156,2.8141,2.8142,2.8142,0,2.7868,2.789,2.7923,2.7952,2.7961,2.7977,2.8002,2.8019,2.8042,2.8052,2.8068,2.8079,2.81,2.8098,2.8127,2.8119,2.813,2.8139,2.814,2.8143,2.814,2.8147,2.8162,2.8164,2.8146,2.8146,2.8145,0,2.7864,2.7903,2.7928,2.794,2.7974,2.7985,2.8,2.8023,2.8037,2.8058,2.8068,2.8091,2.8103,2.812,2.8137,2.8134,2.8164,2.8163,2.8172,2.8172,2.8177,2.8177,2.8194,2.8185,2.8185,2.8185,2.8185,0,2.7877,2.7896,2.7927,2.7942,2.7964,2.7984,2.8005,2.802,2.8041,2.8059,2.8072,2.8088,2.8109,2.8128,2.8141,2.8163,2.8168,2.8176,2.8179,2.8175,2.8174,2.8182,2.8181,2.8185,2.8185,2.8185,2.8185,0,2.7877,2.7898,2.7926,2.7958,2.7966,2.7981,2.8007,2.8022,2.8038,2.806,2.8066,2.809,2.8113,2.8131,2.816,2.8169,2.8192,2.8196,2.8185,2.8187,2.8195,2.8194,2.8217,2.8222,2.821,2.821,2.821,0,2.7884,2.7899,2.7933,2.7947,2.7962,2.7983,2.7999,2.8019,2.8034,2.8063,2.8074,2.8098,2.8118,2.8154,2.8173,2.8195,2.82,2.8207,2.8203,2.8198,2.82,2.8199,2.8201,2.8207,2.8207,2.8207,2.8207,0,2.7893,2.7904,2.7926,2.7952,2.7971,2.7992,2.8013,2.8023,2.8048,2.8064,2.8088,2.8104,2.8135,2.8159,2.8184,2.8197,2.8206,2.8208,2.8211,2.8207,2.82,2.8204,2.8186,2.8207,2.8207,2.8207,2.8207,2.8207,2.7897,2.7912,2.7938,2.7963,2.7982,2.8002,2.8018,2.8036,2.8057,2.8085,2.8096,2.8121,2.8144,2.8179,2.8193,2.8212,2.8213,2.8217,2.8218,2.8219,2.8219,2.8197,2.8216,2.8216,2.8216,2.8217,2.8217,0,2.7908,2.7926,2.7948,2.7979,2.7998,2.8007,2.8031,2.8046,2.8069,2.809,2.8111,2.8139,2.8162,2.8184,2.8208,2.822,2.8224,2.8225,2.8224,2.8228,2.8217,2.8212,2.8221,2.8221,2.8221,2.8221,2.8221,2.8221,2.7915,2.7941,2.7955,2.799,2.8008,2.8034,2.8047,2.8066,2.8083,2.8115,2.8135,2.815,2.8171,2.8197,2.8219,2.8225,2.8233,2.8233,2.8239,2.8229,2.8228,2.8227,2.8223,2.8235,2.8235,2.8249,2.8249,2.8249]}]]